Tracking 31027 objects as of 19-Jul-2025
HD Live streaming from Space Station
objects crossing your sky now

CZ-3B R/B

Track CZ-3B R/B now!
10-day predictions


NORAD ID: 39158
Int'l Code: 2013-020B
Perigee: 192.7 km
Apogee: 22,474.7 km
Inclination: 26.5 °
Period: 390.7 minutes
Semi major axis: 17704 km
RCS: 39.8107 m2 (large)
Launch date: May 1, 2013
Source: People's Republic of China (PRC)
Launch site: Xichang Space Center, China (XSC)

Note: This is a ROCKET BODY
Your satellite tracking list
KL-BETA B
Track 1 satellite(s)




NASA's NSSDC Master Catalog

Two Line Element Set (TLE):
1 39158U 13020B   25199.55248028  .00056300 -33872-6  13996-2 0  9996
2 39158  26.5453 318.3598 6292676 182.4158 171.9193  3.68528444113568
Source of the keplerian elements: AFSPC